Location: Granada
(37.1830°N, 3.6000°W)
Time: 18:23:38
(UTC+02:00)

Iridium 70 - Visible Passes

Search period start: 28 July 2014 00:00
Search period end: 07 August 2014 00:00
Orbit: 776 x 779 km, 86.4° (Epoch: 28 July)

Date Brightness Start Highest point End Pass type
(mag) Time Alt. Az. Time Alt. Az. Time Alt. Az.
28 Jul 7.8 01:12:36 15° ENE 01:12:36 15° ENE 01:14:12 10° NE visible
28 Jul 6.9 02:53:04 33° NNW 02:53:04 33° NNW 02:56:14 10° N visible
29 Jul 6.8 02:19:40 39° N 02:19:40 39° N 02:22:52 10° N visible
30 Jul 7.0 01:46:16 31° NE 01:46:16 31° NE 01:49:09 10° NNE visible
30 Jul 7.7 03:26:44 16° NW 03:26:44 16° NW 03:28:35 10° NW visible
31 Jul 7.5 01:12:51 20° NE 01:12:51 20° NE 01:15:01 10° NNE visible
31 Jul 7.3 02:53:20 25° NW 02:53:20 25° NW 02:56:02 10° NNW visible
01 Aug 7.9 00:39:26 11° ENE 00:39:26 11° ENE 00:39:58 10° NE visible
01 Aug 7.0 02:19:55 34° NNW 02:19:55 34° NNW 02:22:55 10° N visible
02 Aug 6.9 01:46:29 34° NNE 01:46:29 34° NNE 01:49:24 10° N visible
02 Aug 8.1 03:26:58 11° WNW 03:26:58 11° WNW 03:27:17 10° NW visible
03 Aug 7.3 01:13:04 25° NE 01:13:04 25° NE 01:15:33 10° NNE visible
03 Aug 7.7 02:53:32 18° NW 02:53:32 18° NW 02:55:39 10° NNW visible
04 Aug 7.7 00:39:38 15° NE 00:39:38 15° NE 00:41:10 10° NE visible
04 Aug 7.3 02:20:06 28° NNW 02:20:06 28° NNW 02:22:49 10° NNW visible
05 Aug 7.0 01:46:40 34° N 01:46:40 34° N 01:49:32 10° N visible
06 Aug 7.1 01:13:13 29° NNE 01:13:13 29° NNE 01:15:53 10° NNE visible
06 Aug 8.0 02:53:41 13° NW 02:53:41 13° NW 02:54:53 10° NW visible
